Showing default

LINCS2, 48903

Orbit data source: Space-Track

LINCS2, 48903 is an American payload satellite in SSO that was launched on Wed, 30 Jun 2021 UTC via an FALCON 9 launch vehicle from the Air Force Eastern Test Range (AFETR). Payloads include a variety of satellites, spacecraft, and rockets equipped with specific instruments for various scientific and technological missions. These include communications satellites like Starlink; space stations such as the ISS; scientific satellites like the Hubble; Earth observation satellites from companies like Planet Labs, Umbra, and HawkEye 360; GPS; miniature CubeSats for education and research; and military/defense satellites.

Loading next visibility...
LINCS2 details
Identifier
48903, 2021-059AA
Orbit
SSO
Last TLE update10 hours ago
Origin
Flag of USSDA/GACO (US)
ManufacturerGA-EMS
MissionNon-operational Defense Communications
Bus & MotorCUBESAT 12U, Unknown motor
Mass~20 kg wet, ~20 kg dry
Launch date (UTC)
2021-06-30 (4 years ago)
Launch vehicle
FALCON 9
Launch site
Air Force Eastern Test Range (AFETR)
Object type
Payload
Rocket body
Debris
Shape & HBRBox + 4 Pan, 1.4 m
Radar Cross Section0.218 m², Medium (>0.1 m² and < 1m²)

Expand to show TLE details & history

TLE from 10 hours ago
0 LINCS2
1 48903U 21059AA  25014.87762780  .00076197  00000-0  94647-3 0  9991
2 48903  97.6503 177.1104 0003843  14.9400 345.1969 15.59741006197689
Epoch: 2025-01-14T21:03Z
Definitive object data (Epoch: 2025-01-14T21:03:47.041Z)
Latitude-0.00002°
Longitude106.58638°
Altitude389.028 km
Speed7.678 km/s
True Right ascension11h 48m 26s
True Declination0° 00' 00"
Sunlit
Object was in full shadow at TLE epoch
Visualization TLE readout
Latitude-69.15201°
Longitude127.58962°
Altitude413.865 km
Speed7.661 km/s
Apparent Right ascension18h 17m 04s
Apparent Declination-64° 52' 13"
Sunlit
Object is in daylight
Visualization observer readout
Local Sidereal Time08:11:56
Azimuth155.867° SSE
Elevation-60.065°
Doppler factor1
Orbital elements
Apogee altitude387.929 km
Perigee altitude382.731 km
Semi-major axis6,763.467 km
Eccentricity0.0003843
Inclination97.6503°
RAAN177.1104°
Arg. of periapsis14.94°
True anomaly345.18564°
Mean anomaly345.1969°
Eccentric anomaly345.19127°
Mean motion3.90202 °/min
BSTAR0.00094647
Orbital period92.26 mins
Loading maneuver chart data...
Loading historical data...
Loading historical data...
Loading historical data...
Loading historical data...
Loading historical data...
Loading historical data...
Loading historical data...

LINCS2 Visibility forecast

Observer location: undefined°, undefined

Span
Click to sort rows by Start time (UTC) header in descending order
Start Az.
Max El. time (UTC)
Max El. Az.
Max El.
End time (UTC)
End Az.
4 mins2025-01-15 11:03:22.418Z196.556° SSW2025-01-15 11:05:22.418Z262.764° W32.339°2025-01-15 11:07:22.418Z325.291° NNW
4 mins2025-01-15 23:48:22.418Z351.812° N2025-01-15 23:49:22.418Z322.638° NNW35.667°2025-01-15 23:52:22.418Z209.075° SW
|